Meriden, CT

4:54 AM EDT on March 26, 2017 (GMT -0400)
Meriden Markham Municipal

Weather History for KMMK - August, 2013

Change the Weather History Date:

Sunday, August 25, 2013

  Actual Average (KOXC) Record (KOXC)
Temperature  
Mean Temperature 66 °F -  
Max Temperature 82 °F 75 °F 87 °F (1998)
Min Temperature 51 °F 57 °F 51 °F (2005)
Cooling Degree Days 2    
Growing Degree Days 16 (Base 50)    
Moisture  
Dew Point 52 °F    
Average Humidity 75    
Maximum Humidity 100    
Minimum Humidity 31    
Precipitation  
Precipitation 0.00 in - - ()
Sea Level Pressure  
Sea Level Pressure 30.32 in    
Wind  
Wind Speed 1 mph (SSW)    
Max Wind Speed 10 mph    
Max Gust Speed -    
Visibility 7 miles    
Events      
Averages and records for this station are not official NWS values.
T = Trace of Precipitation, MM = Missing Value Source: NWS Daily Summary

Daily Weather History Graph

Daily Weather History Graph

Search for Another Location

Airport or City:

Trip Planner

Search our weather history database for the weather conditions in past years. The results will help you decide how hot, cold, wet, or windy it might be!

Date:

Astronomy

Aug. 25, 2013 Rise Set
Actual Time 6:10 AM EDT 7:35 PM EDT
Civil Twilight 5:41 AM EDT 8:04 PM EDT
Nautical Twilight 5:06 AM EDT 8:38 PM EDT
Astronomical Twilight 4:29 AM EDT 9:15 PM EDT
Moon 10:00 PM EDT (8/25) 11:14 AM EDT (8/25)
Length of Visible Light 14h 22m
Length of Day
13h 24m
Waning Gibbous, 76% of the Moon is Illuminated
Aug 25
Waning Gibbous
Aug 28
Last Quarter
Sep 5
New
Sep 12
First Quarter
Sep 19
Full

Hourly Weather History & Observations

Time (EDT) Temp. Dew Point Humidity Pressure Visibility Wind Dir Wind Speed Gust Speed Precip Events Conditions
12:53 AM 55.0 °F 53.1 °F 93% 30.35 in 8.0 mi Calm Calm - N/A   Clear
1:53 AM 54.0 °F 52.0 °F 93% 30.34 in 9.0 mi Calm Calm - N/A   Clear
2:12 AM 53.6 °F 51.8 °F 94% 30.34 in 1.8 mi Calm Calm - N/A   Clear
2:20 AM 53.6 °F 51.8 °F 94% 30.33 in 2.0 mi Calm Calm - N/A   Partly Cloudy
2:28 AM 53.6 °F 51.8 °F 94% 30.33 in 9.0 mi Calm Calm - N/A   Clear
2:37 AM 53.6 °F 51.8 °F 94% 30.33 in 2.5 mi Calm Calm - N/A   Partly Cloudy
2:51 AM 53.6 °F 51.8 °F 94% 30.33 in 9.0 mi Calm Calm - N/A   Clear
2:53 AM 53.1 °F 51.1 °F 93% 30.33 in 7.0 mi Calm Calm - N/A   Clear
3:21 AM 53.6 °F 51.8 °F 94% 30.33 in 1.8 mi Calm Calm - N/A   Clear
3:30 AM 51.8 °F 51.8 °F 100% 30.33 in 2.5 mi Calm Calm - N/A   Clear
3:37 AM 51.8 °F 50.0 °F 94% 30.33 in 7.0 mi Calm Calm - N/A   Clear
3:49 AM 53.6 °F 51.8 °F 94% 30.34 in 2.0 mi Calm Calm - N/A   Clear
3:53 AM 53.1 °F 51.1 °F 93% 30.33 in 1.2 mi Calm Calm - N/A   Partly Cloudy
4:04 AM 51.8 °F 48.2 °F 88% 30.34 in 3.0 mi Calm Calm - N/A   Partly Cloudy
4:53 AM 52.0 °F 50.0 °F 93% 30.34 in 1.2 mi Calm Calm - N/A   Clear
5:02 AM 53.6 °F 51.8 °F 94% 30.35 in 4.0 mi Calm Calm - N/A   Clear
5:53 AM 51.1 °F 48.0 °F 89% 30.36 in 9.0 mi Calm Calm - N/A   Clear
6:53 AM 52.0 °F 50.0 °F 93% 30.38 in 10.0 mi Calm Calm - N/A   Clear
7:53 AM 60.1 °F 55.0 °F 83% 30.39 in 10.0 mi Calm Calm - N/A   Clear
8:53 AM 64.0 °F 55.9 °F 75% 30.39 in 10.0 mi NNW 3.5 mph - N/A   Clear
9:53 AM 69.1 °F 57.0 °F 65% 30.39 in 10.0 mi Calm Calm - N/A   Clear
10:53 AM 73.9 °F 55.9 °F 53% 30.37 in 10.0 mi Calm Calm - N/A   Clear
11:53 AM 77.0 °F 50.0 °F 39% 30.35 in 10.0 mi SE 3.5 mph - N/A   Clear
12:53 PM 79.0 °F 46.9 °F 32% 30.32 in 10.0 mi SW 3.5 mph - N/A   Clear
1:53 PM 81.0 °F 48.0 °F 31% 30.31 in 10.0 mi Variable 4.6 mph - N/A   Clear
2:53 PM 81.0 °F 48.0 °F 31% 30.30 in 10.0 mi SW 4.6 mph - N/A   Clear
3:53 PM 82.0 °F 50.0 °F 33% 30.29 in 10.0 mi SW 9.2 mph - N/A   Clear
4:53 PM 80.1 °F 52.0 °F 38% 30.27 in 10.0 mi South 9.2 mph - N/A   Clear
5:53 PM 79.0 °F 53.1 °F 40% 30.25 in 10.0 mi South 10.4 mph - N/A   Clear
6:53 PM 73.9 °F 53.1 °F 48% 30.22 in 10.0 mi South 3.5 mph - N/A   Clear
7:53 PM 66.9 °F 55.9 °F 68% 30.22 in 10.0 mi South 4.6 mph - N/A   Clear
8:53 PM 64.0 °F 57.9 °F 80% 30.23 in 10.0 mi Calm Calm - N/A   Clear
9:53 PM 66.0 °F 57.9 °F 75% 30.23 in 10.0 mi South 3.5 mph - N/A   Clear
10:53 PM 64.0 °F 57.9 °F 80% 30.23 in 10.0 mi Calm Calm - N/A   Clear
11:53 PM 66.9 °F 55.9 °F 68% 30.22 in 10.0 mi Calm Calm - N/A   Clear